Reno, NV

2:45 AM PST on December 13, 2019 (GMT -0800)
Reno-Tahoe International

Weather History for KRNO - August, 2019

Change the Weather History Date:

Saturday, August 24, 2019

  Actual Average Record
Temperature  
Mean Temperature 82 °F 72 °F  
Max Temperature 98 °F 89 °F 98 °F (1985)
Min Temperature 65 °F 54 °F 33 °F (1944)
Degree Days  
Heating Degree Days 0 0  
Month to date heating degree days 0 0  
Since 1 June heating degree days 15 61  
Since 1 July heating degree days 0 5  
Cooling Degree Days 16 7  
Month to date cooling degree days 303 216  
Year to date cooling degree days 894 703  
Since 1 June cooling degree days 880 666  
Growing Degree Days 32 (Base 50)    
Moisture  
Dew Point 49 °F    
Average Humidity 34    
Maximum Humidity 58    
Minimum Humidity 18    
Precipitation  
Precipitation 0.00 in 0.00 in 0.36 in (1967)
Month to date precipitation T 0.19  
Year to date precipitation 8.76 4.65  
Snow  
Snow 0.00 in 0.00 in 0.00 in ()
Month to date snowfall 0.0 0.0  
Since 1 June snowfall 0.0 T  
Since 1 July snowfall 0.0 0.0  
Snow Depth 0.00 in    
Sea Level Pressure  
Sea Level Pressure 29.87 in    
Wind  
Wind Speed 5 mph ()    
Max Wind Speed 28 mph    
Max Gust Speed 34 mph    
Visibility 10.0 miles    
Events      
T = Trace of Precipitation, MM = Missing Value Source: Averaged Metar Reports

Daily Weather History Graph

Daily Weather History Graph

Search for Another Location

Airport or City:

Astronomy

Aug. 24, 2019 Rise Set
Actual Time 6:19 AM PDT 7:42 PM PDT
Civil Twilight 5:51 AM PDT 8:10 PM PDT
Nautical Twilight 5:18 AM PDT 8:43 PM PDT
Astronomical Twilight 4:42 AM PDT 9:19 PM PDT
Moon 12:16 AM PDT (8/24) 3:02 PM PDT (8/24)
Length of Visible Light 14h 18m
Length of Day
13h 22m
Last Quarter, 38% of the Moon is Illuminated
Aug 24
Last Quarter
Aug 30
New
Sep 5
First Quarter
Sep 13
Full
Sep 21
Last Quarter

Hourly Weather History & Observations

Time (PDT) Temp. Dew Point Humidity Pressure Visibility Wind Dir Wind Speed Gust Speed Precip Events Conditions
12:55 AM 75.0 °F 51.1 °F 43% 29.85 in 10.0 mi Calm Calm - N/A   Partly Cloudy
1:55 AM 75.0 °F 52.0 °F 44% 29.85 in 10.0 mi WSW 3.5 mph - N/A   Partly Cloudy
2:55 AM 73.0 °F 51.1 °F 46% 29.85 in 10.0 mi West 4.6 mph - N/A   Partly Cloudy
3:55 AM 69.1 °F 51.1 °F 53% 29.86 in 10.0 mi South 4.6 mph - N/A   Partly Cloudy
4:55 AM 69.1 °F 51.1 °F 53% 29.87 in 10.0 mi WNW 4.6 mph - N/A   Partly Cloudy
5:55 AM 68.0 °F 51.1 °F 55% 29.88 in 10.0 mi Calm Calm - N/A   Partly Cloudy
6:55 AM 66.9 °F 51.1 °F 57% 29.90 in 9.0 mi Variable 4.6 mph - N/A   Partly Cloudy
7:55 AM 70.0 °F 51.1 °F 51% 29.92 in 10.0 mi Calm Calm - N/A   Partly Cloudy
8:55 AM 75.9 °F 52.0 °F 43% 29.91 in 10.0 mi Calm Calm - N/A   Partly Cloudy
9:55 AM 81.0 °F 52.0 °F 36% 29.91 in 10.0 mi Calm Calm - N/A   Partly Cloudy
10:55 AM 86.0 °F 51.1 °F 30% 29.90 in 10.0 mi Calm Calm - N/A   Clear
11:55 AM 88.0 °F 51.1 °F 28% 29.89 in 10.0 mi Variable 3.5 mph - N/A   Clear
12:55 PM 91.0 °F 48.9 °F 23% 29.87 in 10.0 mi ESE 5.8 mph - N/A   Partly Cloudy
1:55 PM 96.1 °F 46.9 °F 19% 29.85 in 10.0 mi Variable 6.9 mph 19.6 mph N/A   Partly Cloudy
2:55 PM 97.0 °F 46.9 °F 18% 29.83 in 10.0 mi WNW 20.7 mph 33.4 mph N/A   Partly Cloudy
3:55 PM 96.1 °F 46.9 °F 19% 29.83 in 10.0 mi West 13.8 mph 29.9 mph N/A   Partly Cloudy
4:55 PM 95.0 °F 46.9 °F 19% 29.83 in 10.0 mi West 18.4 mph 26.5 mph N/A   Partly Cloudy
5:55 PM 93.0 °F 46.9 °F 20% 29.83 in 10.0 mi West 21.9 mph 29.9 mph N/A   Partly Cloudy
6:55 PM 89.1 °F 45.0 °F 22% 29.85 in 10.0 mi WNW 24.2 mph 31.1 mph N/A   Clear
7:55 PM 86.0 °F 44.1 °F 23% 29.86 in 10.0 mi WNW 16.1 mph 27.6 mph N/A   Partly Cloudy
8:55 PM 82.9 °F 46.0 °F 27% 29.88 in 10.0 mi WNW 17.3 mph 25.3 mph N/A   Partly Cloudy
9:55 PM 81.0 °F 46.0 °F 29% 29.91 in 10.0 mi NW 9.2 mph - N/A   Clear
10:55 PM 78.1 °F 44.1 °F 30% 29.92 in 10.0 mi NNE 4.6 mph - N/A   Clear
11:55 PM 78.1 °F 44.1 °F 30% 29.93 in 10.0 mi West 4.6 mph - N/A   Clear